Tracking 30261 objects as of 18-Feb-2025
HD Live streaming from Space Station
objects crossing your sky now

STARLINK-5088

Track STARLINK-5088 now!
10-day predictions
STARLINK-5088 is classified as:


NORAD ID: 54000
Int'l Code: 2022-125AN
Perigee: 545.8 km
Apogee: 548.0 km
Inclination: 53.2 °
Period: 95.4 minutes
Semi major axis: 6917 km
RCS: Unknown
Launch date: October 5, 2022
Source: United States (US)
Launch site: AIR FORCE WESTERN TEST RANGE (AFWTR)
Your satellite tracking list
Your tracking list is empty




NASA's NSSDC Master Catalog

Two Line Element Set (TLE):
1 54000U 22125AN  25048.92382838  .00000098  00000-0  24237-4 0  9992
2 54000  53.2169 131.5934 0001597  95.4504 264.6671 15.08838332131583
Source of the keplerian elements: AFSPC